Location: Addison Town Hall
(32.9525°N, 96.8158°W)
Time: 01:38:40
(UTC+00:00)

SeaSat 1 - Pass Details

Date: 08 March 2021
Orbit: 744 x 748 km, 108.0° (Epoch: 10 April)

Event Time Altitude Azimuth Distance (km) Brightness Sun altitude
Rises 12:11:52 0° 162° (SSE) 3,167 5.9 -8.0°
Reaches altitude 10° 12:14:09 10° 166° (SSE) 2,248 5.1 -7.5°
Maximum altitude 12:18:59 64° 247° (WSW) 822 2.5 -6.5°
Drops below altitude 10° 12:23:52 10° 329° (NNW) 2,263 4.6 -5.5°
Sets 12:26:10 0° 333° (NNW) 3,190 5.4 -5.0°
